Hourly Data Report for February 02, 2018

MIRAMICHI RCS
NEW BRUNSWICK

47°00'34.000" N
65°27'54.000" W
33.00 m
8100989
71744
ACQ

Download Data

Hourly Data (February 2018)
Hourly Data Report for February 2, 2018
TIME
LST
Temp Definition
°C
Dew Point Definition
°C
Rel Hum Definition
%
Precip. Amount Definition
mm

Wind Dir Definition
10's deg

Wind Spd Definition
km/h
Visibility Definition
km
Stn Press Definition
kPa
Hmdx Definition


Wind Chill Definition


Weather Definition


00:00 0.0 -1.1 92 0.0 24 13   100.43   -4 LegendNANA
01:00 0.3 -1.0 91 0.0 24 14   100.41     LegendNANA
02:00 0.4 -0.9 91 0.0 22 14   100.35     LegendNANA
03:00 0.2 -0.9 92 0.0 21 13   100.38     LegendNANA
04:00 0.3 -0.8 92 0.0 20 15   100.32     LegendNANA
05:00 -0.8 -1.6 94 0.0 18 9   100.27   -4 LegendNANA
06:00 -0.6 -1.5 94 0.0 18 7   100.18   -3 LegendNANA
07:00 -1.6 -2.2 96 0.2 16 3   100.02   -3 LegendNANA
08:00 -0.9 -1.5 96 0.4   0   99.96     LegendNANA
09:00 -0.7 -1.2 96 0.9 22 2   99.88   -1 LegendNANA
10:00 -0.2 -0.9 95 1.4 0 1   99.72   -1 LegendNANA
11:00 -0.1 -0.8 95 1.2 32 6   99.61   -2 LegendNANA
12:00 -0.8 -1.9 92 0.6 33 11   99.50   -5 LegendNANA
13:00 -4.3 -6.0 88 0.5 33 15   99.36   -10 LegendNANA
14:00 -6.5 -8.7 84 0.5 31 23   99.33   -14 LegendNANA
15:00 -8.1 -10.3 84 0.5 31 13   99.40   -14 LegendNANA
16:00 -10.2 -12.5 83 0.6 31 19   99.51   -18 LegendNANA
17:00 -10.8 -13.3 81 0.3 30 18   99.48   -18 LegendNANA
18:00 -11.6 -14.4 80 0.0 29 21   99.57   -20 LegendNANA
19:00 -12.2 -17.0 67 0.0 29 20   99.68   -21 LegendNANA
20:00 -13.9 -18.6 68 0.0 28 22   99.83   -23 LegendNANA
21:00 -15.0 -19.7 67 0.0 27 14   99.91   -23 LegendNANA
22:00 -15.6 -20.3 67 0.0 27 13   99.97   -23 LegendNANA
23:00 -15.8 -20.6 67 0.0 27 17   100.08   -24 LegendNANA

Notes on Data Quality.

Legend

  • E = Estimated
  • M = Missing
  • NA = Not Available*
  • [empty] = Indicates an unobserved value
Date modified: